Location: Newark
(30.0333°N, 31.2167°E)
Time: 13:48:35
(UTC+00:00)

Tiros 1 despin weight - Pass Details

Date: 26 January 2020
Orbit: 594 x 642 km, 48.2° (Epoch: 22 February)

Event Time Altitude Azimuth Distance (km) Brightness Sun altitude
Rises 08:14:23 0° 242° (WSW) 2,831 ? 34.1°
Reaches altitude 10° 08:16:43 10° 247° (WSW) 1,938 ? 34.3°
Maximum altitude 08:21:02 48° 323° (NW) 793 ? 34.8°
Drops below altitude 10° 08:25:25 10° 38° (NE) 1,972 ? 35.3°
Sets 08:27:49 0° 44° (NE) 2,888 ? 35.6°
